Location: *
(8.6487°N, 0.9826°W)
Time: 00:04:31
(UTC+00:00)

Daily predictions for brighter satellites

Satellite Brightness Start Highest point End
(mag) Time Altitude Azimuth Time Altitude Azimuth Time Altitude Azimuth
CENTAUR R/B 4.1 03:50:38 20° N 03:50:38 20° N 03:52:32 10° N
Ariane 3 Deb 4.1 03:48:22 77° SW 03:48:46 80° S 04:19:14 10° E
BREEZE-M DEB (TANK) 4.1 03:56:48 33° SE 03:56:55 33° SE 04:00:04 10° ENE
Meteor 1-4 Rocket 4.2 04:17:39 30° NNE 04:17:39 30° NNE 04:19:44 10° NNE
COSMOS 2428 3.9 04:22:14 27° S 04:22:14 27° S 04:24:52 10° S
Cosmos 2219 Rocket 3.9 04:26:58 17° S 04:26:58 17° S 04:28:13 10° S
Cosmos 1484 Rocket 2.9 04:30:32 10° NNE 04:34:15 66° E 04:36:13 26° S
ATLAS 3B R/B 3.0 04:36:37 38° W 04:37:54 42° WNW 04:44:09 10° N
Shenzhou-11 Module 3.6 04:38:57 27° ESE 04:38:57 27° ESE 04:40:47 10° ENE
Cosmos 1980 3.9 04:33:14 10° N 04:38:51 73° ENE 04:44:27 10° SSE
CZ-4B R/B 4.1 04:41:54 10° N 04:44:58 43° NW 04:44:58 43° NW
SWIFT 4.0 04:46:24 19° NNW 04:47:30 21° N 04:50:45 10° NE
Cosmos 1544 3.0 04:44:35 10° NNW 04:48:11 60° W 04:51:48 10° S
Hubble Space Telescope 1.1 04:47:33 29° NW 04:49:26 61° NNE 04:53:31 10° ESE
Cosmos 1674 Rocket 3.6 04:47:59 19° SSW 04:50:56 52° W 04:55:15 10° N
Ariane H10+ 3.4 04:50:07 22° SSW 04:51:03 25° S 04:54:31 10° SE
CZ-2C R/B 4.3 04:50:29 10° NNW 04:50:57 12° NW 04:50:57 12° NW
Meteor PRIRODA 3.5 04:50:18 10° N 04:53:57 80° W 04:57:38 10° SSW
Sea Lan Dem Rocket 3.9 04:52:02 21° SW 04:54:42 38° SSE 05:08:12 10° ESE
Ariane V96 H10-3 3.6 04:51:34 25° WSW 04:55:52 63° S 04:58:51 10° E
Cosmos 1092 Rocket 4.0 04:49:57 10° SSW 04:56:10 60° W 05:02:23 10° N
USA 234 4.4 04:53:25 10° ESE 04:59:33 44° NE 05:05:39 10° NNW
ARIANE 5 R/B 4.1 05:00:24 10° SSW 05:02:46 16° SSE 05:07:49 10° ESE
Ariane H10 4.1 04:48:14 21° W 05:03:08 82° S 05:08:43 10° E
Cosmos 468 4.5 04:58:55 10° NNW 05:04:15 88° WSW 05:09:33 10° SSE
FENGYUN 3A 3.6 05:00:48 10° N 05:06:08 70° WNW 05:11:28 10° SSW
ARIANE 5 DEB (SYLDA) 4.1 05:05:08 19° SW 05:06:47 30° S 05:11:13 10° ESE
GPS 2-14 Rocket1 2.7 05:07:37 24° W 05:09:53 69° NNW 05:13:47 10° ENE
CZ-4B R/B 3.8 05:06:38 10° NNW 05:10:35 33° WNW 05:14:37 10° SW
MOS 1-B 4.4 05:08:22 10° NNE 05:14:09 87° ESE 05:19:56 10° SSW
Cosmos 2026 Rocket 4.0 05:08:59 10° SSW 05:15:05 58° W 05:21:05 10° N
PSLV R/B 3.9 05:12:07 10° N 05:16:07 60° WNW 05:20:03 10° SSW
METEOR-M 4.2 05:10:55 10° N 05:16:08 57° WNW 05:21:21 10° SSW
Okean O Rocket 3.0 05:13:15 10° NNE 05:17:26 42° ESE 05:21:37 10° S
Meteor 1-31 Rocket 4.4 05:15:29 10° NW 05:17:51 16° WNW 05:18:10 15° W
Okean 2 Rocket 3.6 05:13:55 10° NNW 05:18:04 37° W 05:22:15 10° SSW
CRYOSAT 2 4.3 05:13:16 10° N 05:18:07 90° W 05:22:59 10° S
Cosmos 2151 Rocket 3.5 05:13:48 10° NNW 05:18:07 63° W 05:22:28 10° S
Cosmos 1867 4.5 05:15:27 14° WSW 05:19:04 28° WNW 05:23:39 10° N
Cosmos 2237 Rocket 2.6 05:16:13 10° NW 05:21:31 41° WSW 05:26:50 10° S
ARIANE 5 DEB (SYLDA) 3.6 05:20:59 12° SW 05:22:10 15° SSW 05:23:30 10° SSE
Ariane H10+ 3.7 05:19:48 12° SW 05:22:40 32° SSE 05:27:52 10° ESE
Cosmos 2263 Rocket 2.6 05:19:08 10° SW 05:24:19 39° WNW 05:29:33 10° N
CZ-4B R/B 3.9 05:20:51 10° NNE 05:26:20 61° ESE 05:31:54 10° S
H-2A R/B 3.8 05:24:12 10° NW 05:26:48 17° WNW 05:29:22 10° WSW
FUSE 4.2 05:21:32 10° SW 05:26:48 66° SSE 05:32:05 10° ENE
Cosmos 1378 3.1 05:26:44 10° SSW 05:30:22 61° W 05:34:01 10° N
Cosmos 1300 Rocket 4.4 05:31:52 10° NW 05:35:29 27° W 05:39:08 10° SSW
